Погода в Краснополье

Россия / Воронежская область     50°37′24″N   41°17′41″E
темп.,
°C
ветер,
м/с
пор.,
м/с
влажн.,
%
обл.,
%
осадки,
мм/ч
давл.,
гПа
погр.,
м
17 сентября, пт
пт1700:00+8вюв11570 0.0 101910
03:00+7ююв11621 0.0 102010
06:00+6ю11675 0.0 102010
09:00+12ю224398 0.0 1019390
12:00+17юз343125 0.0 10171679
15:00+19з342683 0.0 10162013
18:00+15ссз333666 0.0 101636
21:00+14св2441100 0.0 101697
18 сентября, сб
сб1800:00+13всв3743100 0.0 1016182
03:00+13св4746100 0.0 1017237
06:00+11всв61056100 0.1 1018339
09:00+10всв4768100 0.1 1019300
12:00+10всв5662100 0.1 1019388
15:00+10всв5862100 0.1 1019391
18:00+10в5963100 0.0 1019376
21:00+10в61165100 0.0 1019367
19 сентября, вс
вс1900:00+10в61365100 0.0 1019375
03:00+10в61359100 0.0 1019425
06:00+10в71456100 0.0 1018449
09:00+12в71347100 0.0 1018551
12:00+14вюв81350100 0.4 1017791
15:00+14ююв41171100 1.4 1016592
18:00+13юв71585100 4.5 1015758
21:00+14юв7167299 7.1 1014612
20 сентября, пн
пн2000:00+12юв61393100 6.4 1014487
03:00+13юв51294100 7.8 1013457
06:00+12юв51094100 0.7 1012486
09:00+14юв5992100 0.8 1012472
12:00+17ююв5884100 0.1 1012677
15:00+21ю465674 3.0 10111167
18:00+18ю116391 0.3 101211
21:00+15юв237673 0.3 101333
21 сентября, вт
вт2100:00+15юв6128911 0.0 1013306
03:00+13юв511865 0.0 1013268
06:00+12юв4988100 0.2 1013234
09:00+13вюв4989100 0.5 1013287
12:00+15юв61195100 3.5 1012527
15:00+14юв5997100 10.1 1011407
18:00+14зюз3697100 1.3 1011406
21:00+12з4990100 1.6 1013442